Location: Castillon
(43.0896°N, 0.2156°E)
Time: 20:07:02
(UTC+00:00)

SJ 16-02 - Pass Details

Date: 16 June 2021
Orbit: 606 x 616 km, 75.0° (Epoch: 31 July)

Event Time Altitude Azimuth Distance (km) Brightness Sun altitude
Rises 23:49:29 0° 350° (N) 2,874 6.2 -23.5°
Reaches altitude 10° 23:51:58 10° 2° (N) 1,965 5.0 -23.5°
Maximum altitude 23:55:49 30° 63° (ENE) 1,107 2.8 -23.5°
Enters shadow 23:57:03 25° 93° (E) 1,220 2.8 -23.5°
